Terminal Aerodrome Forecast
Issued by NWS Twin Cities, MN

Home | Current Version | Previous Version | Graphics & Text | Print | Product List | Glossary On
Versions: 1 2 3 4 5 6 7 8 9 10 11 12 13 14 15 16 17 18 19 20 21 22 23 24 25 26
000
FTUS43 KMPX 170200 AAB
TAFMSP
TAF AMD
KMSP 170257Z 1703/1806 02012KT 4SM -RA BR OVC006
      TEMPO 1704/1706 2SM -RASN BR OVC007
     FM170600 34012G20KT P6SM OVC015
     FM171200 34007KT P6SM OVC020
     FM171800 36009KT P6SM SCT020 OVC040
     FM180000 32008KT P6SM SCT100=

USA.gov is the U.S. government's official web portal to all federal, state and local government web resources and services.